Regional Weather Roundup
Issued by NWS

Home | Current Version | Previous Version | Graphics & Text | Print | Product List | Glossary Off
Versions: 1 2 3 4 5 6 7 8 9 10 11 12 13 14 15 16 17 18 19 20 21 22 23 24 25 26 27 28 29 30 31 32 33 34 35 36 37 38 39 40 41 42 43 44 45 46 47 48 49 50

000
ASUS43 KDMX 290207
RWRIA

WEATHER ROUNDUP FOR IOWA
NATIONAL WEATHER SERVICE DES MOINES IA
900 PM CDT SUN JUN 28 2015

NOTE: "FAIR" INDICATES FEW OR NO CLOUDS BELOW 12,000 FEET WITH NO
SIGNIFICANT WEATHER AND/OR OBSTRUCTIONS TO VISIBILITY.

* - THESE STATIONS ARE NOT NWS STATIONS...THUS NOT UNDER NWS
QUALITY CONTROL.  THEY ALSO DO NOT REPORT WEATHER SUCH
AS PRECIPITATION OR FOG.

IAZ001>003-012>014-020>022-031>034-043>046-290300-
   NORTHWEST IOWA

CITY           SKY/WX    TMP DP  RH WIND       PRES   REMARKS
CARROLL *      CLEAR     73  64  73 NW8       29.84S
CHEROKEE *     CLEAR     73  59  60 N6        29.87R
DENISON *      CLEAR     72  61  68 N6        29.85R
LE MARS *      CLEAR     73  61  64 N6        29.89R
ORANGE CITY *  CLEAR     73  57  56 N6        29.89R
SHELDON *      CLEAR     72  59  64 N7        29.87S
STORM LAKE *   CLEAR     72  61  68 N9        29.88R
$$

IAZ055>058-069>071-079>083-090>094-290300-
   SOUTHWEST IOWA

CITY           SKY/WX    TMP DP  RH WIND       PRES   REMARKS
ATLANTIC *     CLEAR     73  61  64 N7        29.85R
AUDUBON *      CLEAR     73  63  68 NW6       29.86S
CLARINDA *     CLEAR     77  63  61 NW7       29.85R
COUNCIL BLFS * CLEAR     75  61  60 N7        29.87R
CRESTON *      CLEAR     75  61  60 N9        29.84R
HARLAN  *      CLEAR     73  64  73 N8        29.89R
RED OAK *      CLEAR     77  61  57 N9        29.85R
SHENANDOAH *   CLEAR     79  61  53 N7        29.85R HX  80
$$

IAZ047>049-059>061-072>074-084-290300-
   CENTRAL IOWA

CITY           SKY/WX    TMP DP  RH WIND       PRES   REMARKS
ANKENY *       CLEAR     75  68  78 NW8       29.80R
CHARITON *     PTCLDY    73  66  78 NW9       29.80R
GRINNELL*      PTCLDY    70  66  88 NE5       29.81R
KNOXVILLE *    CLEAR     72  64  78 N7        29.78R
PELLA *        PTCLDY    68  68 100 CALM      29.80R
PERRY *          N/A     73  66  78 N6        29.83R
$$

IAZ004>006-015-016-023>025-035-036-290300-
   NORTH CENTRAL IOWA

CITY           SKY/WX    TMP DP  RH WIND       PRES   REMARKS
ALGONA *       PTCLDY    70  64  83 CALM      29.85R
CLARION *      MOCLDY    73  64  73 N10G18    29.83R
FOREST CITY *    N/A     64  63  94 CALM      29.84S
IOWA FALLS *   CLOUDY    73  66  78 CALM      29.82S
$$

IAZ007>011-017>019-026>030-037>042-050>054-066-290300-
   NORTHEAST IOWA

CITY           SKY/WX    TMP DP  RH WIND       PRES   REMARKS
CHARLES CITY * MOCLDY    66  66 100 CALM      29.82S
DECORAH *        N/A    N/A N/A N/A MISG        N/A
MONTICELLO *   CLEAR     64  64 100 E5        29.81R
OELWEIN *      CLOUDY    66  64  94 E3        29.83R
$$

IAZ064-065-067-068-078-290300-
   EAST CENTRAL IOWA

CITY           SKY/WX    TMP DP  RH WIND       PRES   REMARKS
MT. PLEASANT * MOCLDY    72  66  83 E7        29.78R
MUSCATINE *    CLOUDY    68  64  88 E6        29.79R
$$

IAZ062-063-075>077-085>089-095>099-290300-
   SOUTHEAST IOWA

CITY           SKY/WX    TMP DP  RH WIND       PRES   REMARKS
FAIRFIELD *    MOCLDY    72  68  88 NE7       29.77S
FORT MADISON * PTCLDY    70  68  94 NE5       29.77S
KEOKUK *       CLEAR     70  68  94 N3        29.75R
OSKALOOSA *    HVY RAIN  70  66  88 N5        29.79R
WASHINGTON *   PTCLDY    68  66  94 NE8       29.80R
$$

ABBREVIATIONS USED IN REMARKS
   TC - TEMPERATURES IN CELSIUS
  WCI - WIND CHILL INDEX
   HX - HEAT INDEX
  VSB - VISIBILITY
$$



USA.gov is the U.S. government's official web portal to all federal, state and local government web resources and services.